When you browse on this site, cookies collect data to enhance your experience and personalize the content and advertising you see.
Visit our Privacy Policy to learn more. By continuing to use the site, you agree to this use of cookies and data.
  • In Österreich
  • Länderverzeichnis
  • Für 7 Tage
  • Wassertemperatur
  • Satellitenkarten
  • Wetterkarte
  • News
  • Widgets
  • user-avatar
    Anmelden

    Stündliche Wetter Rohy

    Heute, 25 April, Donnerstag

    Zeit Temperatur Niederschläge Wind Luftdruck Luftfeuchtigkeit
    00:00 +10°C° 0 mm 2 m/S 750 mmHg 57%
    01:00 +9°C° 0 mm 2 m/S 750 mmHg 57%
    02:00 +10°C° 0 mm 1 m/S 750 mmHg 57%
    03:00 +10°C° 0 mm 1 m/S 750 mmHg 57%
    04:00 +10°C° 0 mm 1 m/S 750 mmHg 58%
    05:00 +9°C° 0 mm 1 m/S 750 mmHg 58%
    06:00 +11°C° 0 mm 1 m/S 750 mmHg 55%
    07:00 +13°C° 0 mm 2 m/S 750 mmHg 52%
    08:00 +14°C° 0 mm 2 m/S 750 mmHg 50%
    09:00 +16°C° 0 mm 3 m/S 750 mmHg 45%
    10:00 +17°C° 0 mm 4 m/S 750 mmHg 41%
    11:00 +19°C° 0 mm 4 m/S 750 mmHg 37%
    12:00 +19°C° 0 mm 5 m/S 750 mmHg 36%
    13:00 +20°C° 0 mm 5 m/S 749 mmHg 36%
    14:00 +21°C° 0 mm 5 m/S 749 mmHg 35%
    15:00 +20°C° 0 mm 5 m/S 749 mmHg 37%
    16:00 +20°C° 0 mm 5 m/S 748 mmHg 38%
    17:00 +20°C° 0 mm 4 m/S 748 mmHg 40%
    18:00 +18°C° 0 mm 4 m/S 748 mmHg 44%
    19:00 +16°C° 0 mm 3 m/S 748 mmHg 48%
    20:00 +13°C° 0 mm 3 m/S 747 mmHg 53%
    21:00 +14°C° 0 mm 2 m/S 747 mmHg 53%
    22:00 +13°C° 0 mm 2 m/S 747 mmHg 53%
    23:00 +12°C° 0 mm 2 m/S 747 mmHg 54%

    Morgen, 26 April, Freitag

    Zeit Temperatur Niederschläge Wind Luftdruck Luftfeuchtigkeit
    00:00 +10°C° 0 mm 2 m/S 747 mmHg 57%
    01:00 +10°C° 0 mm 2 m/S 747 mmHg 60%
    02:00 +9°C° 0 mm 2 m/S 747 mmHg 63%
    03:00 +9°C° 0 mm 2 m/S 747 mmHg 66%
    04:00 +8°C° 0 mm 2 m/S 747 mmHg 69%
    05:00 +8°C° 0 mm 2 m/S 747 mmHg 72%
    06:00 +9°C° 0 mm 2 m/S 747 mmHg 66%
    07:00 +11°C° 0 mm 3 m/S 746 mmHg 60%
    08:00 +13°C° 0 mm 3 m/S 746 mmHg 55%
    09:00 +14°C° 0 mm 3 m/S 746 mmHg 49%
    10:00 +17°C° 0 mm 4 m/S 746 mmHg 43%
    11:00 +18°C° 0 mm 4 m/S 746 mmHg 38%
    12:00 +19°C° 0 mm 4 m/S 746 mmHg 37%
    13:00 +20°C° 0 mm 4 m/S 746 mmHg 37%
    14:00 +20°C° 0 mm 4 m/S 745 mmHg 37%
    15:00 +20°C° 0 mm 4 m/S 745 mmHg 39%
    16:00 +20°C° 0 mm 4 m/S 745 mmHg 42%
    17:00 +20°C° 0 mm 4 m/S 744 mmHg 44%
    18:00 +18°C° 0 mm 4 m/S 744 mmHg 50%
    19:00 +17°C° 0 mm 3 m/S 744 mmHg 56%
    20:00 +14°C° 0 mm 3 m/S 744 mmHg 62%
    21:00 +13°C° 0 mm 3 m/S 744 mmHg 63%
    22:00 +12°C° 0 mm 3 m/S 744 mmHg 63%
    23:00 +12°C° 0 mm 3 m/S 744 mmHg 64%

    übermorgen, 27 April, Samstag

    Zeit Temperatur Niederschläge Wind Luftdruck Luftfeuchtigkeit
    00:00 +11°C° 0 mm 3 m/S 744 mmHg 65%
    01:00 +10°C° 0 mm 3 m/S 743 mmHg 66%
    02:00 +10°C° 0 mm 3 m/S 743 mmHg 68%
    03:00 +9°C° 0 mm 3 m/S 743 mmHg 68%
    04:00 +9°C° 0 mm 3 m/S 743 mmHg 69%
    05:00 +8°C° 0 mm 3 m/S 742 mmHg 70%
    06:00 +10°C° 0 mm 4 m/S 742 mmHg 66%
    07:00 +11°C° 0 mm 4 m/S 742 mmHg 62%
    08:00 +13°C° 0 mm 5 m/S 742 mmHg 57%
    09:00 +15°C° 0 mm 5 m/S 742 mmHg 53%
    10:00 +17°C° 0 mm 6 m/S 742 mmHg 49%
    11:00 +18°C° 0 mm 7 m/S 742 mmHg 45%
    12:00 +20°C° 0 mm 7 m/S 741 mmHg 44%
    13:00 +21°C° 0 mm 7 m/S 741 mmHg 44%
    14:00 +22°C° 0 mm 6 m/S 741 mmHg 44%
    15:00 +21°C° 0 mm 6 m/S 740 mmHg 45%
    16:00 +21°C° 0 mm 6 m/S 740 mmHg 47%
    17:00 +21°C° 0 mm 5 m/S 739 mmHg 49%
    18:00 +19°C° 0 mm 5 m/S 739 mmHg 54%
    19:00 +17°C° 0 mm 5 m/S 739 mmHg 58%
    20:00 +15°C° 0 mm 4 m/S 739 mmHg 62%
    21:00 +14°C° 0 mm 4 m/S 739 mmHg 64%
    22:00 +13°C° 0 mm 4 m/S 739 mmHg 65%
    23:00 +12°C° 0 mm 4 m/S 739 mmHg 66%

    28 April, Sonntag

    Zeit Temperatur Niederschläge Wind Luftdruck Luftfeuchtigkeit
    00:00 +11°C° 0 mm 3 m/S 739 mmHg 67%
    01:00 +11°C° 0 mm 3 m/S 739 mmHg 68%
    02:00 +10°C° 0 mm 3 m/S 739 mmHg 70%
    03:00 +9°C° 0 mm 3 m/S 738 mmHg 70%
    04:00 +9°C° 0 mm 3 m/S 738 mmHg 70%
    05:00 +8°C° 0 mm 3 m/S 738 mmHg 71%
    06:00 +10°C° 0 mm 3 m/S 738 mmHg 65%
    07:00 +11°C° 0 mm 4 m/S 738 mmHg 59%
    08:00 +13°C° 0 mm 4 m/S 738 mmHg 53%
    09:00 +15°C° 0 mm 4 m/S 738 mmHg 48%
    10:00 +17°C° 0 mm 5 m/S 738 mmHg 43%
    11:00 +19°C° 0 mm 5 m/S 738 mmHg 38%
    12:00 +20°C° 0 mm 5 m/S 738 mmHg 38%
    13:00 +21°C° 0 mm 5 m/S 738 mmHg 37%
    14:00 +22°C° 0 mm 5 m/S 738 mmHg 36%
    15:00 +21°C° 0 mm 5 m/S 737 mmHg 39%
    16:00 +21°C° 0 mm 5 m/S 737 mmHg 41%
    17:00 +21°C° 0 mm 5 m/S 737 mmHg 43%
    18:00 +19°C° 0 mm 4 m/S 737 mmHg 51%
    19:00 +17°C° 0 mm 3 m/S 737 mmHg 58%
    20:00 +14°C° 0 mm 3 m/S 737 mmHg 65%
    21:00 +13°C° 0 mm 3 m/S 737 mmHg 71%
    22:00 +13°C° 0 mm 3 m/S 737 mmHg 77%
    23:00 +13°C° 0 mm 2 m/S 737 mmHg 84%

    29 April, Montag

    Zeit Temperatur Niederschläge Wind Luftdruck Luftfeuchtigkeit
    00:00 +13°C° 0 mm 2 m/S 737 mmHg 87%
    01:00 +12°C° 0 mm 2 m/S 737 mmHg 91%
    02:00 +12°C° 0 mm 2 m/S 737 mmHg 95%
    03:00 +10°C° 0 mm 2 m/S 737 mmHg 95%
    04:00 +9°C° 0 mm 2 m/S 737 mmHg 96%
    05:00 +9°C° 0 mm 2 m/S 737 mmHg 96%
    06:00 +10°C° 0 mm 2 m/S 737 mmHg 88%
    07:00 +13°C° 0 mm 2 m/S 737 mmHg 79%
    08:00 +14°C° 0 mm 2 m/S 737 mmHg 71%
    09:00 +16°C° 0 mm 3 m/S 738 mmHg 65%
    10:00 +17°C° 0 mm 3 m/S 738 mmHg 59%
    11:00 +19°C° 0 mm 3 m/S 738 mmHg 53%
    12:00 +19°C° 0 mm 3 m/S 738 mmHg 52%
    13:00 +20°C° 0 mm 3 m/S 737 mmHg 51%
    14:00 +20°C° 0 mm 3 m/S 737 mmHg 50%
    15:00 +20°C° 0 mm 2 m/S 737 mmHg 49%
    16:00 +20°C° 0 mm 2 m/S 737 mmHg 49%
    17:00 +21°C° 0 mm 1 m/S 737 mmHg 49%
    18:00 +20°C° 0 mm 1 m/S 737 mmHg 52%
    19:00 +19°C° 0 mm 1 m/S 737 mmHg 56%
    20:00 +18°C° 0 mm 1 m/S 737 mmHg 59%
    21:00 +16°C° 0.2 mm 2 m/S 737 mmHg 66%
    22:00 +15°C° 0.2 mm 2 m/S 737 mmHg 73%
    23:00 +13°C° 0.2 mm 3 m/S 737 mmHg 80%

    30 April, Dienstag

    Zeit Temperatur Niederschläge Wind Luftdruck Luftfeuchtigkeit
    00:00 +13°C° 0.7 mm 3 m/S 737 mmHg 84%
    01:00 +12°C° 0.7 mm 3 m/S 737 mmHg 88%
    02:00 +12°C° 0.7 mm 4 m/S 737 mmHg 92%
    03:00 +12°C° 1 mm 4 m/S 737 mmHg 93%
    04:00 +11°C° 1 mm 4 m/S 737 mmHg 93%
    05:00 +11°C° 1 mm 4 m/S 737 mmHg 93%
    06:00 +12°C° 1.5 mm 4 m/S 737 mmHg 93%
    07:00 +12°C° 1.5 mm 4 m/S 737 mmHg 93%
    08:00 +12°C° 1.5 mm 4 m/S 737 mmHg 93%
    09:00 +13°C° 0.6 mm 5 m/S 737 mmHg 87%
    10:00 +14°C° 0.6 mm 5 m/S 737 mmHg 81%
    11:00 +15°C° 0.6 mm 6 m/S 737 mmHg 75%
    12:00 +15°C° 0.8 mm 6 m/S 736 mmHg 75%
    13:00 +15°C° 0.8 mm 6 m/S 736 mmHg 74%
    14:00 +16°C° 0.8 mm 6 m/S 736 mmHg 73%
    15:00 +15°C° 0.3 mm 6 m/S 736 mmHg 76%
    16:00 +15°C° 0.3 mm 5 m/S 735 mmHg 79%
    17:00 +14°C° 0.3 mm 5 m/S 735 mmHg 82%
    18:00 +14°C° 1.7 mm 5 m/S 735 mmHg 85%
    19:00 +13°C° 1.7 mm 6 m/S 735 mmHg 88%
    20:00 +13°C° 1.7 mm 6 m/S 734 mmHg 91%
    21:00 +13°C° 0.7 mm 5 m/S 734 mmHg 92%
    22:00 +12°C° 0.7 mm 5 m/S 734 mmHg 92%
    23:00 +12°C° 0.7 mm 5 m/S 734 mmHg 92%
    Mehr zeigen